Location: Arcones
(41.1182°N, 3.7238°W)
Time: 18:49:10
(UTC+00:00)

Cosmos 2084 Rocket - Pass Details

Date: 11 December 2025
Orbit: 545 x 569 km, 62.8° (Epoch: 15 January)

Event Time Altitude Azimuth Distance (km) Brightness Sun altitude
Rises 17:21:37 0° 329° (NNW) 2,770 7.0 -6.7°
Reaches altitude 10° 17:23:56 10° 335° (NNW) 1,872 6.1 -7.1°
Maximum altitude 17:28:00 47° 50° (NE) 758 3.6 -7.8°
Drops below altitude 10° 17:32:05 10° 125° (SE) 1,864 5.7 -8.5°
Sets 17:34:22 0° 131° (SE) 2,757 6.6 -8.9°
